| time (UTC) | temp F | wind direction | speed MPH | gust MPH | rain 1hr in | rain 24hr in | rain mn in | humidity % | barometer mb |
| 20260902000711 | 89 | 64 | 9.0 | 0.0 | 0.00 | 0.00 | 0.00 | 41 | 1009.6 |
| 20260902000213 | 89 | 88 | 13.0 | 0.0 | 0.00 | 0.00 | 0.00 | 40 | 1009.3 |
| 20260901235505 | 89 | 59 | 9.0 | 0.0 | 0.00 | 0.00 | 0.00 | 39 | 1009.3 |
| 20260901235005 | 89 | 108 | 9.0 | 0.0 | 0.00 | 0.00 | 0.00 | 39 | 1009.3 |
| 20260901234505 | 89 | 64 | 18.0 | 0.0 | 0.00 | 0.00 | 0.00 | 38 | 1009.3 |
| 20260901234005 | 89 | 74 | 13.0 | 0.0 | 0.00 | 0.00 | 0.00 | 38 | 1009.3 |
| 20260901233713 | 90 | 122 | 9.0 | 0.0 | 0.00 | 0.00 | 0.00 | 38 | 1009.3 |
| 20260901233213 | 90 | 138 | 9.0 | 0.0 | 0.00 | 0.00 | 0.00 | 38 | 1008.9 |
| 20260901232505 | 91 | 76 | 4.0 | 0.0 | 0.00 | 0.00 | 0.00 | 37 | 1009.3 |
| 20260901232005 | 91 | 191 | 9.0 | 0.0 | 0.00 | 0.00 | 0.00 | 37 | 1008.9 |
| 20260901231505 | 91 | 42 | 18.0 | 0.0 | 0.00 | 0.00 | 0.00 | 37 | 1009.3 |
| 20260901231005 | 92 | 100 | 18.0 | 0.0 | 0.00 | 0.00 | 0.00 | 37 | 1008.9 |
| 20260901230505 | 92 | 21 | 4.0 | 0.0 | 0.00 | 0.00 | 0.00 | 37 | 1009.3 |
| 20260901230212 | 92 | 137 | 9.0 | 0.0 | 0.00 | 0.00 | 0.00 | 37 | 1008.9 |
| 20260901225505 | 92 | 81 | 13.0 | 0.0 | 0.00 | 0.00 | 0.00 | 36 | 1008.9 |
| 20260901225004 | 92 | 75 | 13.0 | 0.0 | 0.00 | 0.00 | 0.00 | 36 | 1008.9 |
| 20260901224505 | 92 | 24 | 13.0 | 0.0 | 0.00 | 0.00 | 0.00 | 37 | 1008.9 |
| 20260901224005 | 92 | 65 | 9.0 | 0.0 | 0.00 | 0.00 | 0.00 | 36 | 1008.9 |
| 20260901223505 | 92 | 114 | 18.0 | 0.0 | 0.00 | 0.00 | 0.00 | 37 | 1008.9 |
| 20260901223006 | 93 | 128 | 13.0 | 0.0 | 0.00 | 0.00 | 0.00 | 36 | 1008.9 |
| 20260901222505 | 92 | 149 | 4.0 | 0.0 | 0.00 | 0.00 | 0.00 | 35 | 1008.9 |
| 20260901222005 | 93 | 149 | 13.0 | 0.0 | 0.00 | 0.00 | 0.00 | 35 | 1008.9 |
| 20260901221505 | 93 | 137 | 9.0 | 0.0 | 0.00 | 0.00 | 0.00 | 35 | 1008.9 |
| 20260901221005 | 93 | 113 | 18.0 | 0.0 | 0.00 | 0.00 | 0.00 | 35 | 1008.9 |
| 20260901220505 | 93 | 58 | 9.0 | 0.0 | 0.00 | 0.00 | 0.00 | 35 | 1009.3 |
| 20260901220005 | 94 | 41 | 4.0 | 0.0 | 0.00 | 0.00 | 0.00 | 34 | 1008.9 |
| 20260901215713 | 93 | 174 | 9.0 | 0.0 | 0.00 | 0.00 | 0.00 | 34 | 1009.3 |
| 20260901215005 | 93 | 86 | 13.0 | 0.0 | 0.00 | 0.00 | 0.00 | 34 | 1008.9 |
| 20260901214505 | 93 | 149 | 23.0 | 0.0 | 0.00 | 0.00 | 0.00 | 33 | 1008.9 |
| 20260901214005 | 93 | 158 | 9.0 | 0.0 | 0.00 | 0.00 | 0.00 | 37 | 1008.9 |
| 20260901213505 | 93 | 53 | 13.0 | 0.0 | 0.00 | 0.00 | 0.00 | 34 | 1009.3 |
| 20260901213005 | 94 | 110 | 18.0 | 0.0 | 0.00 | 0.00 | 0.00 | 33 | 1009.3 |
| 20260901212712 | 94 | 78 | 13.0 | 0.0 | 0.00 | 0.00 | 0.00 | 32 | 1008.9 |
| 20260901212005 | 95 | 50 | 9.0 | 0.0 | 0.00 | 0.00 | 0.00 | 32 | 1009.3 |
| 20260901211712 | 95 | 125 | 4.0 | 0.0 | 0.00 | 0.00 | 0.00 | 32 | 1008.9 |
| 20260901211212 | 95 | 102 | 18.0 | 0.0 | 0.00 | 0.00 | 0.00 | 31 | 1009.3 |
| 20260901210505 | 95 | 11 | 4.0 | 0.0 | 0.00 | 0.00 | 0.00 | 30 | 1009.6 |
| 20260901210005 | 95 | 133 | 4.0 | 0.0 | 0.00 | 0.00 | 0.00 | 30 | 1009.6 |
| 20260901205505 | 95 | 164 | 23.0 | 0.0 | 0.00 | 0.00 | 0.00 | 30 | 1009.6 |
| 20260901205005 | 94 | 191 | 18.0 | 0.0 | 0.00 | 0.00 | 0.00 | 32 | 1009.6 |
| 20260901204505 | 93 | 149 | 9.0 | 0.0 | 0.00 | 0.00 | 0.00 | 32 | 1009.6 |
| 20260901204213 | 94 | 35 | 9.0 | 0.0 | 0.00 | 0.00 | 0.00 | 32 | 1009.9 |
| 20260901203505 | 93 | 172 | 4.0 | 0.0 | 0.00 | 0.00 | 0.00 | 32 | 1009.6 |
| 20260901203004 | 94 | 84 | 23.0 | 0.0 | 0.00 | 0.00 | 0.00 | 32 | 1010.3 |
| 20260901202505 | 93 | 125 | 9.0 | 0.0 | 0.00 | 0.00 | 0.00 | 34 | 1010.3 |
| 20260901202005 | 93 | 134 | 13.0 | 0.0 | 0.00 | 0.00 | 0.00 | 34 | 1010.3 |
| 20260901201505 | 95 | 40 | 4.0 | 0.0 | 0.00 | 0.00 | 0.00 | 33 | 1009.9 |
| 20260901201005 | 93 | 114 | 4.0 | 0.0 | 0.00 | 0.00 | 0.00 | 35 | 1010.3 |
| 20260901200505 | 94 | 92 | 9.0 | 0.0 | 0.00 | 0.00 | 0.00 | 35 | 1010.6 |
| 20260901200211 | 93 | 39 | 9.0 | 0.0 | 0.00 | 0.00 | 0.00 | 35 | 1010.6 |
| 20260901195505 | 94 | 101 | 9.0 | 0.0 | 0.00 | 0.00 | 0.00 | 35 | 1010.6 |
| 20260901195005 | 94 | 42 | 13.0 | 0.0 | 0.00 | 0.00 | 0.00 | 34 | 1010.6 |
| 20260901194712 | 93 | 139 | 9.0 | 0.0 | 0.00 | 0.00 | 0.00 | 37 | 1011.0 |
| 20260901194005 | 93 | 31 | 18.0 | 0.0 | 0.00 | 0.00 | 0.00 | 37 | 1011.0 |
| 20260901193505 | 93 | 310 | 13.0 | 0.0 | 0.00 | 0.00 | 0.00 | 36 | 1011.0 |
| 20260901193005 | 93 | 164 | 13.0 | 0.0 | 0.00 | 0.00 | 0.00 | 36 | 1011.0 |
| 20260901192505 | 93 | 146 | 4.0 | 0.0 | 0.00 | 0.00 | 0.00 | 36 | 1011.0 |
| 20260901192005 | 94 | 167 | 4.0 | 0.0 | 0.00 | 0.00 | 0.00 | 36 | 1011.0 |
| 20260901191505 | 93 | 151 | 18.0 | 0.0 | 0.00 | 0.00 | 0.00 | 36 | 1011.0 |
| 20260901191004 | 93 | 113 | 9.0 | 0.0 | 0.00 | 0.00 | 0.00 | 35 | 1011.3 |
| 20260901190505 | 92 | 126 | 4.0 | 0.0 | 0.00 | 0.00 | 0.00 | 36 | 1011.3 |
| 20260901190213 | 93 | 149 | 4.0 | 0.0 | 0.00 | 0.00 | 0.00 | 37 | 1011.3 |
| 20260901185505 | 93 | 148 | 23.0 | 0.0 | 0.00 | 0.00 | 0.00 | 37 | 1011.6 |
| 20260901185005 | 92 | 30 | 9.0 | 0.0 | 0.00 | 0.00 | 0.00 | 38 | 1011.6 |
| 20260901184505 | 92 | 104 | 0.0 | 0.0 | 0.00 | 0.00 | 0.00 | 38 | 1011.6 |
| 20260901184005 | 92 | 125 | 18.0 | 0.0 | 0.00 | 0.00 | 0.00 | 38 | 1011.6 |
| 20260901183505 | 92 | 142 | 13.0 | 0.0 | 0.00 | 0.00 | 0.00 | 39 | 1011.6 |
| 20260901183212 | 92 | 166 | 13.0 | 0.0 | 0.00 | 0.00 | 0.00 | 39 | 1011.6 |
| 20260901182713 | 92 | 62 | 9.0 | 0.0 | 0.00 | 0.00 | 0.00 | 38 | 1012.0 |
| 20260901182005 | 91 | 58 | 13.0 | 0.0 | 0.00 | 0.00 | 0.00 | 41 | 1012.0 |
| 20260901181505 | 91 | 111 | 9.0 | 0.0 | 0.00 | 0.00 | 0.00 | 41 | 1012.3 |
| 20260901181005 | 91 | 175 | 4.0 | 0.0 | 0.00 | 0.00 | 0.00 | 41 | 1012.0 |
| 20260901180505 | 91 | 149 | 9.0 | 0.0 | 0.00 | 0.00 | 0.00 | 42 | 1012.3 |
| 20260901180005 | 91 | 49 | 18.0 | 0.0 | 0.00 | 0.00 | 0.00 | 43 | 1012.3 |
| 20260901175505 | 90 | 146 | 4.0 | 0.0 | 0.00 | 0.00 | 0.00 | 42 | 1012.7 |
| 20260901175005 | 90 | 175 | 9.0 | 0.0 | 0.00 | 0.00 | 0.00 | 43 | 1012.7 |
| 20260901174505 | 91 | 31 | 18.0 | 0.0 | 0.00 | 0.00 | 0.00 | 42 | 1012.3 |
| 20260901174212 | 91 | 166 | 9.0 | 0.0 | 0.00 | 0.00 | 0.00 | 43 | 1012.7 |
| 20260901173505 | 89 | 152 | 9.0 | 0.0 | 0.00 | 0.00 | 0.00 | 46 | 1012.7 |
| 20260901173005 | 90 | 159 | 0.0 | 0.0 | 0.00 | 0.00 | 0.00 | 44 | 1012.7 |
| 20260901172713 | 90 | 148 | 13.0 | 0.0 | 0.00 | 0.00 | 0.00 | 46 | 1012.7 |
| 20260901172005 | 89 | 41 | 9.0 | 0.0 | 0.00 | 0.00 | 0.00 | 46 | 1012.7 |
| 20260901171505 | 89 | 144 | 13.0 | 0.0 | 0.00 | 0.00 | 0.00 | 45 | 1013.0 |
| 20260901171005 | 89 | 149 | 23.0 | 0.0 | 0.00 | 0.00 | 0.00 | 45 | 1012.7 |
| 20260901170504 | 89 | 130 | 9.0 | 0.0 | 0.00 | 0.00 | 0.00 | 48 | 1013.0 |
| 20260901170005 | 89 | 126 | 13.0 | 0.0 | 0.00 | 0.00 | 0.00 | 45 | 1013.0 |
| 20260901165505 | 89 | 164 | 4.0 | 0.0 | 0.00 | 0.00 | 0.00 | 49 | 1013.3 |
| 20260901165212 | 89 | 114 | 0.0 | 0.0 | 0.00 | 0.00 | 0.00 | 50 | 1013.3 |
| 20260901164505 | 89 | 86 | 18.0 | 0.0 | 0.00 | 0.00 | 0.00 | 49 | 1013.3 |
| 20260901164005 | 88 | 175 | 9.0 | 0.0 | 0.00 | 0.00 | 0.00 | 54 | 1013.3 |
| 20260901163713 | 88 | 164 | 9.0 | 0.0 | 0.00 | 0.00 | 0.00 | 52 | 1013.3 |
| 20260901163005 | 89 | 52 | 13.0 | 0.0 | 0.00 | 0.00 | 0.00 | 53 | 1013.3 |
| 20260901162504 | 87 | 96 | 0.0 | 0.0 | 0.00 | 0.00 | 0.00 | 55 | 1013.0 |
| 20260901162212 | 87 | 104 | 13.0 | 0.0 | 0.00 | 0.00 | 0.00 | 54 | 1013.3 |
| 20260901161505 | 87 | 174 | 4.0 | 0.0 | 0.00 | 0.00 | 0.00 | 55 | 1013.3 |
| 20260901161005 | 86 | 154 | 9.0 | 0.0 | 0.00 | 0.00 | 0.00 | 57 | 1013.3 |
| 20260901160505 | 86 | 33 | 9.0 | 0.0 | 0.00 | 0.00 | 0.00 | 58 | 1013.3 |
| 20260901160004 | 86 | 95 | 4.0 | 0.0 | 0.00 | 0.00 | 0.00 | 59 | 1013.3 |
| 20260901155713 | 86 | 163 | 9.0 | 0.0 | 0.00 | 0.00 | 0.00 | 59 | 1013.3 |
| 20260901155005 | 86 | 146 | 13.0 | 0.0 | 0.00 | 0.00 | 0.00 | 60 | 1013.3 |
| 20260901154505 | 85 | 175 | 27.0 | 0.0 | 0.00 | 0.00 | 0.00 | 60 | 1013.3 |
| 20260901154005 | 85 | 163 | 13.0 | 0.0 | 0.00 | 0.00 | 0.00 | 61 | 1013.3 |
| 20260901153712 | 85 | 165 | 23.0 | 0.0 | 0.00 | 0.00 | 0.00 | 61 | 1013.3 |
| 20260901153005 | 84 | 58 | 4.0 | 0.0 | 0.00 | 0.00 | 0.00 | 64 | 1013.3 |
| 20260901152504 | 85 | 178 | 13.0 | 0.0 | 0.00 | 0.00 | 0.00 | 62 | 1013.3 |
| 20260901152005 | 84 | 73 | 9.0 | 0.0 | 0.00 | 0.00 | 0.00 | 62 | 1013.0 |
| 20260901151505 | 84 | 30 | 13.0 | 0.0 | 0.00 | 0.00 | 0.00 | 63 | 1013.3 |
| 20260901151005 | 84 | 73 | 13.0 | 0.0 | 0.00 | 0.00 | 0.00 | 64 | 1013.3 |
| 20260901150505 | 83 | 76 | 13.0 | 0.0 | 0.00 | 0.00 | 0.00 | 66 | 1013.3 |
| 20260901150211 | 83 | 126 | 13.0 | 0.0 | 0.00 | 0.00 | 0.00 | 68 | 1013.3 |
| 20260901145505 | 83 | 97 | 9.0 | 0.0 | 0.00 | 0.00 | 0.00 | 70 | 1013.3 |
| 20260901145005 | 83 | 175 | 9.0 | 0.0 | 0.00 | 0.00 | 0.00 | 69 | 1013.3 |
| 20260901144505 | 82 | 151 | 9.0 | 0.0 | 0.00 | 0.00 | 0.00 | 70 | 1013.3 |
| 20260901144005 | 82 | 100 | 4.0 | 0.0 | 0.00 | 0.00 | 0.00 | 72 | 1013.3 |
| 20260901143505 | 82 | 97 | 9.0 | 0.0 | 0.00 | 0.00 | 0.00 | 73 | 1013.3 |
| 20260901143005 | 82 | 133 | 9.0 | 0.0 | 0.00 | 0.00 | 0.00 | 73 | 1013.3 |
| 20260901142505 | 81 | 164 | 4.0 | 0.0 | 0.00 | 0.00 | 0.00 | 75 | 1013.3 |
| 20260901142004 | 81 | 176 | 9.0 | 0.0 | 0.00 | 0.00 | 0.00 | 74 | 1013.3 |
| 20260901141505 | 81 | 151 | 13.0 | 0.0 | 0.00 | 0.00 | 0.00 | 76 | 1013.3 |
| 20260901141005 | 81 | 109 | 9.0 | 0.0 | 0.00 | 0.00 | 0.00 | 76 | 1013.0 |
| 20260901140505 | 80 | 143 | 9.0 | 0.0 | 0.00 | 0.00 | 0.00 | 77 | 1013.3 |
| 20260901140213 | 80 | 81 | 4.0 | 0.0 | 0.00 | 0.00 | 0.00 | 77 | 1013.0 |
| 20260901135505 | 80 | 38 | 4.0 | 0.0 | 0.00 | 0.00 | 0.00 | 79 | 1013.3 |
| 20260901135004 | 80 | 138 | 0.0 | 0.0 | 0.00 | 0.00 | 0.00 | 81 | 1013.0 |
| 20260901134712 | 79 | 122 | 9.0 | 0.0 | 0.00 | 0.00 | 0.00 | 82 | 1013.0 |
| 20260901134005 | 78 | 121 | 9.0 | 0.0 | 0.00 | 0.00 | 0.00 | 83 | 1013.0 |
| 20260901133505 | 78 | 74 | 4.0 | 0.0 | 0.00 | 0.00 | 0.00 | 83 | 1013.0 |
| 20260901133004 | 78 | 66 | 4.0 | 0.0 | 0.00 | 0.00 | 0.00 | 83 | 1013.0 |
| 20260901132714 | 77 | 124 | 0.0 | 0.0 | 0.00 | 0.00 | 0.00 | 85 | 1013.0 |
| 20260901132212 | 77 | 125 | 0.0 | 0.0 | 0.00 | 0.00 | 0.00 | 85 | 1013.0 |
| 20260901131714 | 77 | 120 | 0.0 | 0.0 | 0.00 | 0.00 | 0.00 | 86 | 1013.0 |
| 20260901131006 | 77 | 61 | 4.0 | 0.0 | 0.00 | 0.00 | 0.00 | 86 | 1013.0 |
| 20260901130505 | 77 | 120 | 0.0 | 0.0 | 0.00 | 0.00 | 0.00 | 86 | 1012.7 |
| 20260901130005 | 77 | 53 | 0.0 | 0.0 | 0.00 | 0.00 | 0.00 | 87 | 1012.7 |
| 20260901125713 | 77 | 109 | 0.0 | 0.0 | 0.00 | 0.00 | 0.00 | 88 | 1012.3 |
| 20260901125005 | 76 | 112 | 4.0 | 0.0 | 0.00 | 0.00 | 0.00 | 88 | 1012.7 |
| 20260901124711 | 76 | 94 | 4.0 | 0.0 | 0.00 | 0.00 | 0.00 | 89 | 1012.3 |
| 20260901124005 | 76 | 100 | 0.0 | 0.0 | 0.00 | 0.00 | 0.00 | 89 | 1012.7 |
| 20260901123505 | 76 | 100 | 0.0 | 0.0 | 0.00 | 0.00 | 0.00 | 89 | 1012.3 |
| 20260901123005 | 76 | 143 | 0.0 | 0.0 | 0.00 | 0.00 | 0.00 | 89 | 1012.3 |
| 20260901122505 | 76 | 124 | 0.0 | 0.0 | 0.00 | 0.00 | 0.00 | 88 | 1012.3 |
| 20260901122005 | 76 | 114 | 0.0 | 0.0 | 0.00 | 0.00 | 0.00 | 88 | 1012.3 |
| 20260901121505 | 76 | 125 | 0.0 | 0.0 | 0.00 | 0.00 | 0.00 | 88 | 1012.3 |
| 20260901121005 | 76 | 125 | 0.0 | 0.0 | 0.00 | 0.00 | 0.00 | 87 | 1012.3 |
| 20260901120505 | 76 | 112 | 4.0 | 0.0 | 0.00 | 0.00 | 0.00 | 87 | 1012.3 |
| 20260901120005 | 76 | 72 | 0.0 | 0.0 | 0.00 | 0.00 | 0.00 | 87 | 1012.3 |
| 20260901115505 | 76 | 116 | 0.0 | 0.0 | 0.00 | 0.00 | 0.00 | 87 | 1012.3 |
| 20260901115005 | 77 | 78 | 0.0 | 0.0 | 0.00 | 0.00 | 0.00 | 87 | 1012.3 |
| 20260901114505 | 77 | 128 | 0.0 | 0.0 | 0.00 | 0.00 | 0.00 | 86 | 1012.3 |
| 20260901114005 | 77 | 117 | 0.0 | 0.0 | 0.00 | 0.00 | 0.00 | 86 | 1012.3 |
| 20260901113505 | 77 | 112 | 0.0 | 0.0 | 0.00 | 0.00 | 0.00 | 86 | 1012.3 |
| 20260901113005 | 77 | 135 | 0.0 | 0.0 | 0.00 | 0.00 | 0.00 | 86 | 1012.3 |
| 20260901112504 | 77 | 119 | 0.0 | 0.0 | 0.00 | 0.00 | 0.00 | 86 | 1012.3 |
| 20260901112005 | 77 | 161 | 0.0 | 0.0 | 0.00 | 0.00 | 0.00 | 86 | 1012.3 |
| 20260901111713 | 77 | 142 | 4.0 | 0.0 | 0.00 | 0.00 | 0.00 | 85 | 1012.0 |
| 20260901111005 | 77 | 172 | 4.0 | 0.0 | 0.00 | 0.00 | 0.00 | 85 | 1012.3 |
| 20260901110505 | 77 | 117 | 0.0 | 0.0 | 0.00 | 0.00 | 0.00 | 85 | 1012.0 |
| 20260901110212 | 77 | 115 | 0.0 | 0.0 | 0.00 | 0.00 | 0.00 | 85 | 1012.3 |
| 20260901105505 | 77 | 108 | 4.0 | 0.0 | 0.00 | 0.00 | 0.00 | 85 | 1012.3 |
| 20260901105005 | 77 | 117 | 4.0 | 0.0 | 0.00 | 0.00 | 0.00 | 85 | 1012.3 |
| 20260901104713 | 77 | 155 | 9.0 | 0.0 | 0.00 | 0.00 | 0.00 | 84 | 1012.3 |
| 20260901104005 | 77 | 136 | 4.0 | 0.0 | 0.00 | 0.00 | 0.00 | 84 | 1012.3 |
| 20260901103713 | 77 | 156 | 18.0 | 0.0 | 0.00 | 0.00 | 0.00 | 84 | 1012.3 |
| 20260901103005 | 77 | 141 | 13.0 | 0.0 | 0.00 | 0.00 | 0.00 | 84 | 1012.0 |
| 20260901102712 | 77 | 146 | 0.0 | 0.0 | 0.00 | 0.00 | 0.00 | 84 | 1012.0 |
| 20260901102005 | 77 | 142 | 4.0 | 0.0 | 0.00 | 0.00 | 0.00 | 84 | 1012.3 |
| 20260901101712 | 77 | 180 | 9.0 | 0.0 | 0.00 | 0.00 | 0.00 | 85 | 1012.3 |
| 20260901101005 | 77 | 141 | 0.0 | 0.0 | 0.00 | 0.00 | 0.00 | 85 | 1012.3 |
| 20260901100712 | 77 | 132 | 0.0 | 0.0 | 0.00 | 0.00 | 0.00 | 85 | 1012.3 |
| 20260901100005 | 77 | 132 | 0.0 | 0.0 | 0.00 | 0.00 | 0.00 | 86 | 1012.3 |
| 20260901095505 | 77 | 127 | 0.0 | 0.0 | 0.00 | 0.00 | 0.00 | 86 | 1012.3 |
| 20260901095005 | 77 | 121 | 0.0 | 0.0 | 0.00 | 0.00 | 0.00 | 86 | 1012.3 |
| 20260901094505 | 77 | 127 | 0.0 | 0.0 | 0.00 | 0.00 | 0.00 | 86 | 1012.3 |
| 20260901094005 | 77 | 65 | 0.0 | 0.0 | 0.00 | 0.00 | 0.00 | 86 | 1012.3 |
| 20260901093504 | 77 | 115 | 0.0 | 0.0 | 0.00 | 0.00 | 0.00 | 86 | 1012.3 |
| 20260901093005 | 77 | 156 | 0.0 | 0.0 | 0.00 | 0.00 | 0.00 | 86 | 1012.3 |
| 20260901092505 | 77 | 115 | 4.0 | 0.0 | 0.00 | 0.00 | 0.00 | 86 | 1012.3 |
| 20260901092005 | 77 | 143 | 0.0 | 0.0 | 0.00 | 0.00 | 0.00 | 86 | 1012.3 |
| 20260901091505 | 77 | 110 | 0.0 | 0.0 | 0.00 | 0.00 | 0.00 | 86 | 1012.7 |
| 20260901091005 | 77 | 94 | 0.0 | 0.0 | 0.00 | 0.00 | 0.00 | 86 | 1012.7 |
| 20260901090505 | 77 | 108 | 4.0 | 0.0 | 0.00 | 0.00 | 0.00 | 85 | 1012.3 |
| 20260901090005 | 77 | 120 | 0.0 | 0.0 | 0.00 | 0.00 | 0.00 | 85 | 1012.7 |
| 20260901085505 | 77 | 91 | 0.0 | 0.0 | 0.00 | 0.00 | 0.00 | 85 | 1012.7 |
| 20260901085005 | 77 | 120 | 0.0 | 0.0 | 0.00 | 0.00 | 0.00 | 85 | 1012.7 |
| 20260901084505 | 77 | 117 | 0.0 | 0.0 | 0.00 | 0.00 | 0.00 | 85 | 1012.7 |
| 20260901084004 | 77 | 63 | 4.0 | 0.0 | 0.00 | 0.00 | 0.00 | 85 | 1012.7 |
| 20260901083505 | 77 | 131 | 0.0 | 0.0 | 0.00 | 0.00 | 0.00 | 85 | 1013.0 |
| 20260901083005 | 77 | 127 | 0.0 | 0.0 | 0.00 | 0.00 | 0.00 | 84 | 1012.7 |
| 20260901082712 | 77 | 130 | 0.0 | 0.0 | 0.00 | 0.00 | 0.00 | 84 | 1012.7 |
| 20260901082005 | 77 | 131 | 0.0 | 0.0 | 0.00 | 0.00 | 0.00 | 84 | 1012.7 |
| 20260901081505 | 77 | 113 | 0.0 | 0.0 | 0.00 | 0.00 | 0.00 | 84 | 1012.7 |
| 20260901081005 | 77 | 125 | 0.0 | 0.0 | 0.00 | 0.00 | 0.00 | 84 | 1013.0 |
| 20260901080505 | 77 | 158 | 0.0 | 0.0 | 0.00 | 0.00 | 0.00 | 84 | 1012.7 |
| 20260901080004 | 77 | 128 | 0.0 | 0.0 | 0.00 | 0.00 | 0.00 | 84 | 1012.7 |
| 20260901075505 | 77 | 137 | 0.0 | 0.0 | 0.00 | 0.00 | 0.00 | 83 | 1012.7 |
| 20260901075005 | 77 | 106 | 0.0 | 0.0 | 0.00 | 0.00 | 0.00 | 83 | 1012.7 |
| 20260901074505 | 78 | 82 | 0.0 | 0.0 | 0.00 | 0.00 | 0.00 | 83 | 1012.7 |
| 20260901074005 | 78 | 130 | 0.0 | 0.0 | 0.00 | 0.00 | 0.00 | 83 | 1012.7 |
| 20260901073505 | 78 | 81 | 9.0 | 0.0 | 0.00 | 0.00 | 0.00 | 82 | 1012.7 |
| 20260901073005 | 78 | 75 | 0.0 | 0.0 | 0.00 | 0.00 | 0.00 | 82 | 1013.0 |
| 20260901072506 | 78 | 63 | 4.0 | 0.0 | 0.00 | 0.00 | 0.00 | 82 | 1012.7 |
| 20260901072212 | 78 | 30 | 4.0 | 0.0 | 0.00 | 0.00 | 0.00 | 82 | 1013.0 |
| 20260901071711 | 78 | 148 | 0.0 | 0.0 | 0.00 | 0.00 | 0.00 | 82 | 1013.0 |
| 20260901071005 | 78 | 121 | 0.0 | 0.0 | 0.00 | 0.00 | 0.00 | 82 | 1013.0 |
| 20260901070505 | 78 | 156 | 0.0 | 0.0 | 0.00 | 0.00 | 0.00 | 82 | 1013.0 |
| 20260901070005 | 78 | 140 | 4.0 | 0.0 | 0.00 | 0.00 | 0.00 | 82 | 1013.0 |
| 20260901065505 | 78 | 153 | 0.0 | 0.0 | 0.00 | 0.00 | 0.00 | 82 | 1013.0 |
| 20260901065212 | 78 | 354 | 4.0 | 0.0 | 0.00 | 0.00 | 0.00 | 81 | 1012.7 |
| 20260901064713 | 78 | 132 | 0.0 | 0.0 | 0.00 | 0.00 | 0.00 | 81 | 1013.3 |
| 20260901064005 | 78 | 120 | 4.0 | 0.0 | 0.00 | 0.00 | 0.00 | 81 | 1013.0 |
| 20260901063713 | 79 | 138 | 9.0 | 0.0 | 0.00 | 0.00 | 0.00 | 81 | 1013.0 |
| 20260901063004 | 78 | 103 | 4.0 | 0.0 | 0.00 | 0.00 | 0.00 | 81 | 1013.0 |
| 20260901062505 | 78 | 78 | 9.0 | 0.0 | 0.00 | 0.00 | 0.00 | 81 | 1013.0 |
| 20260901062005 | 79 | 126 | 9.0 | 0.0 | 0.00 | 0.00 | 0.00 | 81 | 1013.3 |
| 20260901061505 | 79 | 143 | 4.0 | 0.0 | 0.00 | 0.00 | 0.00 | 81 | 1013.0 |
| 20260901061212 | 79 | 10 | 13.0 | 0.0 | 0.00 | 0.00 | 0.00 | 81 | 1013.0 |
| 20260901060505 | 79 | 57 | 4.0 | 0.0 | 0.00 | 0.00 | 0.00 | 81 | 1013.0 |
| 20260901060005 | 79 | 99 | 0.0 | 0.0 | 0.00 | 0.00 | 0.00 | 81 | 1013.0 |
| 20260901055505 | 79 | 121 | 0.0 | 0.0 | 0.00 | 0.00 | 0.00 | 80 | 1013.3 |
| 20260901055005 | 79 | 94 | 4.0 | 0.0 | 0.00 | 0.00 | 0.00 | 80 | 1013.3 |
| 20260901054505 | 79 | 125 | 4.0 | 0.0 | 0.00 | 0.00 | 0.00 | 80 | 1013.3 |
| 20260901054005 | 79 | 103 | 0.0 | 0.0 | 0.00 | 0.00 | 0.00 | 80 | 1012.7 |
| 20260901053505 | 79 | 23 | 0.0 | 0.0 | 0.00 | 0.00 | 0.00 | 80 | 1013.0 |
| 20260901053004 | 79 | 127 | 9.0 | 0.0 | 0.00 | 0.00 | 0.00 | 79 | 1013.0 |
| 20260901052505 | 79 | 59 | 9.0 | 0.0 | 0.00 | 0.00 | 0.00 | 79 | 1013.3 |
| 20260901052005 | 79 | 119 | 0.0 | 0.0 | 0.00 | 0.00 | 0.00 | 79 | 1013.0 |
| 20260901051505 | 80 | 75 | 18.0 | 0.0 | 0.00 | 0.00 | 0.00 | 79 | 1013.0 |
| 20260901051006 | 80 | 98 | 0.0 | 0.0 | 0.00 | 0.00 | 0.00 | 78 | 1013.3 |
| 20260901050505 | 80 | 97 | 0.0 | 0.0 | 0.00 | 0.00 | 0.00 | 78 | 1013.3 |
| 20260901045505 | 80 | 104 | 4.0 | 0.0 | 0.00 | 0.00 | 0.00 | 78 | 1013.0 |
| 20260901045005 | 80 | 144 | 4.0 | 0.0 | 0.00 | 0.00 | 0.00 | 78 | 1013.3 |
| 20260901044506 | 80 | 96 | 9.0 | 0.0 | 0.00 | 0.00 | 0.00 | 77 | 1013.3 |
| 20260901044214 | 80 | 154 | 4.0 | 0.0 | 0.00 | 0.00 | 0.00 | 77 | 1013.3 |
| 20260901043505 | 80 | 62 | 18.0 | 0.0 | 0.00 | 0.00 | 0.00 | 77 | 1013.3 |
| 20260901043005 | 80 | 131 | 4.0 | 0.0 | 0.00 | 0.00 | 0.00 | 76 | 1013.3 |
| 20260901042505 | 80 | 136 | 9.0 | 0.0 | 0.00 | 0.00 | 0.00 | 76 | 1013.0 |
| 20260901042005 | 80 | 73 | 9.0 | 0.0 | 0.00 | 0.00 | 0.00 | 76 | 1013.3 |
| 20260901041504 | 80 | 141 | 4.0 | 0.0 | 0.00 | 0.00 | 0.00 | 76 | 1013.3 |
| 20260901041005 | 80 | 319 | 13.0 | 0.0 | 0.00 | 0.00 | 0.00 | 75 | 1013.3 |
| 20260901040505 | 80 | 98 | 9.0 | 0.0 | 0.00 | 0.00 | 0.00 | 75 | 1013.3 |
| 20260901040005 | 80 | 149 | 9.0 | 0.0 | 0.00 | 0.00 | 0.00 | 75 | 1013.3 |
| 20260901035712 | 80 | 49 | 0.0 | 0.0 | 0.00 | 0.00 | 0.00 | 74 | 1013.3 |
| 20260901035005 | 80 | 116 | 4.0 | 0.0 | 0.00 | 0.00 | 0.00 | 74 | 1013.3 |
| 20260901034505 | 80 | 62 | 4.0 | 0.0 | 0.00 | 0.00 | 0.00 | 74 | 1013.3 |
| 20260901034005 | 80 | 62 | 9.0 | 0.0 | 0.00 | 0.00 | 0.00 | 74 | 1013.3 |
| 20260901033505 | 80 | 102 | 4.0 | 0.0 | 0.00 | 0.00 | 0.00 | 73 | 1013.0 |
| 20260901033004 | 80 | 99 | 18.0 | 0.0 | 0.00 | 0.00 | 0.00 | 73 | 1013.0 |
| 20260901032505 | 80 | 110 | 13.0 | 0.0 | 0.00 | 0.00 | 0.00 | 72 | 1013.0 |
| 20260901032005 | 80 | 68 | 9.0 | 0.0 | 0.00 | 0.00 | 0.00 | 72 | 1013.3 |
| 20260901031712 | 80 | 140 | 4.0 | 0.0 | 0.00 | 0.00 | 0.00 | 71 | 1013.0 |
| 20260901031005 | 80 | 83 | 4.0 | 0.0 | 0.00 | 0.00 | 0.00 | 71 | 1013.0 |
| 20260901030505 | 80 | 108 | 4.0 | 0.0 | 0.00 | 0.00 | 0.00 | 70 | 1012.7 |
| 20260901030004 | 81 | 62 | 9.0 | 0.0 | 0.00 | 0.00 | 0.00 | 70 | 1012.7 |
| 20260901025505 | 81 | 103 | 13.0 | 0.0 | 0.00 | 0.00 | 0.00 | 70 | 1012.3 |
| 20260901025213 | 81 | 37 | 9.0 | 0.0 | 0.00 | 0.00 | 0.00 | 69 | 1012.3 |
| 20260901024713 | 81 | 78 | 18.0 | 0.0 | 0.00 | 0.00 | 0.00 | 68 | 1012.3 |
| 20260901024212 | 81 | 17 | 13.0 | 0.0 | 0.00 | 0.00 | 0.00 | 67 | 1012.0 |
| 20260901023505 | 81 | 107 | 18.0 | 0.0 | 0.00 | 0.00 | 0.00 | 67 | 1012.0 |
| 20260901023212 | 81 | 87 | 4.0 | 0.0 | 0.00 | 0.00 | 0.00 | 66 | 1011.6 |
| 20260901022505 | 82 | 109 | 13.0 | 0.0 | 0.00 | 0.00 | 0.00 | 66 | 1011.6 |
| 20260901022212 | 82 | 96 | 13.0 | 0.0 | 0.00 | 0.00 | 0.00 | 65 | 1012.0 |
| 20260901021711 | 82 | 33 | 4.0 | 0.0 | 0.00 | 0.00 | 0.00 | 65 | 1011.6 |
| 20260901021005 | 82 | 143 | 9.0 | 0.0 | 0.00 | 0.00 | 0.00 | 64 | 1011.6 |
| 20260901020505 | 82 | 63 | 13.0 | 0.0 | 0.00 | 0.00 | 0.00 | 64 | 1011.3 |
| 20260901020212 | 82 | 63 | 13.0 | 0.0 | 0.00 | 0.00 | 0.00 | 63 | 1011.3 |
| 20260901015505 | 83 | 107 | 13.0 | 0.0 | 0.00 | 0.00 | 0.00 | 63 | 1011.3 |
| 20260901015005 | 83 | 34 | 23.0 | 0.0 | 0.00 | 0.00 | 0.00 | 62 | 1011.0 |
| 20260901014505 | 83 | 55 | 4.0 | 0.0 | 0.00 | 0.00 | 0.00 | 62 | 1011.0 |
| 20260901014005 | 83 | 63 | 13.0 | 0.0 | 0.00 | 0.00 | 0.00 | 60 | 1011.0 |
| 20260901013505 | 83 | 43 | 4.0 | 0.0 | 0.00 | 0.00 | 0.00 | 60 | 1011.3 |
| 20260901013005 | 83 | 104 | 13.0 | 0.0 | 0.00 | 0.00 | 0.00 | 59 | 1011.0 |
| 20260901012505 | 83 | 122 | 0.0 | 0.0 | 0.00 | 0.00 | 0.00 | 57 | 1011.0 |
| 20260901012005 | 83 | 114 | 4.0 | 0.0 | 0.00 | 0.00 | 0.00 | 56 | 1011.0 |
| 20260901011505 | 84 | 81 | 13.0 | 0.0 | 0.00 | 0.00 | 0.00 | 55 | 1010.6 |
| 20260901011004 | 84 | 82 | 18.0 | 0.0 | 0.00 | 0.00 | 0.00 | 54 | 1010.6 |
| 20260901010505 | 84 | 43 | 13.0 | 0.0 | 0.00 | 0.00 | 0.00 | 53 | 1010.6 |
| 20260901010005 | 85 | 45 | 9.0 | 0.0 | 0.00 | 0.00 | 0.00 | 52 | 1010.6 |
| 20260901005713 | 85 | 28 | 32.0 | 0.0 | 0.00 | 0.00 | 0.00 | 51 | 1010.6 |
| 20260901005005 | 85 | 64 | 13.0 | 0.0 | 0.00 | 0.00 | 0.00 | 51 | 1010.6 |
| 20260901004504 | 85 | 55 | 9.0 | 0.0 | 0.00 | 0.00 | 0.00 | 50 | 1010.3 |
| 20260901004005 | 86 | 49 | 9.0 | 0.0 | 0.00 | 0.00 | 0.00 | 49 | 1010.3 |
| 20260901003505 | 86 | 40 | 18.0 | 0.0 | 0.00 | 0.00 | 0.00 | 48 | 1010.3 |
| 20260901003005 | 86 | 201 | 13.0 | 0.0 | 0.00 | 0.00 | 0.00 | 49 | 1010.3 |
| 20260901002505 | 86 | 75 | 13.0 | 0.0 | 0.00 | 0.00 | 0.00 | 48 | 1010.3 |
| 20260901002005 | 86 | 12 | 9.0 | 0.0 | 0.00 | 0.00 | 0.00 | 47 | 1009.9 |
| 20260901001505 | 87 | 193 | 13.0 | 0.0 | 0.00 | 0.00 | 0.00 | 46 | 1009.9 |
| 20260901001004 | 87 | 109 | 18.0 | 0.0 | 0.00 | 0.00 | 0.00 | 45 | 1010.3 |